Regional Weather Roundup
Issued by NWS

Home | Current Version | Previous Version | Graphics & Text | Print | Product List | Glossary On
Versions: 1 2 3 4 5 6 7 8 9 10 11 12 13 14 15 16 17 18 19 20 21 22 23 24 25 26 27 28 29 30 31 32 33 34 35 36 37 38 39 40 41 42 43 44 45 46 47 48 49 50
000
ASUS43 KDMX 260508
RWRIA

WEATHER ROUNDUP FOR IOWA
NATIONAL WEATHER SERVICE DES MOINES IA
1200 AM CDT MON SEP 26 2016

NOTE: "FAIR" INDICATES FEW OR NO CLOUDS BELOW 12,000 FEET WITH NO
SIGNIFICANT WEATHER AND/OR OBSTRUCTIONS TO VISIBILITY.

* - THESE STATIONS ARE NOT NWS STATIONS...THUS NOT UNDER NWS
QUALITY CONTROL.  THEY ALSO DO NOT REPORT WEATHER SUCH
AS PRECIPITATION OR FOG.

IAZ001>003-012>014-020>022-031>034-043>046-260600-
   NORTHWEST IOWA

CITY           SKY/WX    TMP DP  RH WIND       PRES   REMARKS
CARROLL *      CLEAR     54  43  66 W8        30.16S
CHEROKEE *     CLEAR     50  41  70 NW7       30.17S
DENISON *      CLEAR     50  43  76 CALM      30.17S
LE MARS *      CLEAR     48  41  76 W3        30.19F
ORANGE CITY *  CLEAR     46  43  87 NW6       30.18S
SHELDON *      CLEAR     48  41  76 W7        30.14F
SIOUX CITY     CLEAR     51  41  68 W7        30.20S
SPENCER        CLEAR     50  42  74 W12       30.14S
STORM LAKE *   CLEAR     48  43  81 W8        30.16F
$$

IAZ055>058-069>071-079>083-090>094-260600-
   SOUTHWEST IOWA

CITY           SKY/WX    TMP DP  RH WIND       PRES   REMARKS
ATLANTIC *     CLEAR     54  43  66 NW7       30.19S
AUDUBON *      CLEAR     52  45  76 CALM      30.19S
CLARINDA *       N/A     57  45  62 MISG      30.21S
COUNCIL BLFS * CLEAR     54  41  62 NW5       30.21S
CRESTON *      CLEAR     52  46  82 NW8       30.19S
HARLAN  *      CLEAR     48  45  87 W8        30.23S
LAMONI         CLEAR     54  50  86 W7        30.17S
RED OAK *      CLEAR     54  45  71 NW6       30.20S
SHENANDOAH *   CLEAR     55  46  71 W3        30.22R
$$

IAZ047>049-059>061-072>074-084-260600-
   CENTRAL IOWA

CITY           SKY/WX    TMP DP  RH WIND       PRES   REMARKS
AMES           CLEAR     55  49  80 W10       30.13R
ANKENY *         N/A    N/A N/A N/A MISG        N/A
BOONE *        CLEAR     55  45  67 W12       30.13S
CHARITON *       N/A     54  50  87 W7        30.14S
DES MOINES     CLEAR     58  47  66 NW10      30.13S
GRINNELL*      PTCLDY    55  50  84 W6        30.12S
KNOXVILLE *    CLEAR     54  48  82 W5        30.12F
MARSHALLTOWN   CLEAR     53  50  89 W8        30.10S
NEWTON *       CLEAR     54  50  87 W5        30.11F
PELLA *        PTCLDY    57  51  82 W6        30.13F
PERRY *          N/A     53  47  82 W6        30.16R
$$

IAZ004>006-015-016-023>025-035-036-260600-
   NORTH CENTRAL IOWA

CITY           SKY/WX    TMP DP  RH WIND       PRES   REMARKS
ALGONA *       CLEAR     52  45  76 W9        30.12S
CLARION *      CLEAR     52  48  87 W8        30.11S
ESTHERVILLE    CLEAR     51  42  71 W8        30.11F
FORT DODGE *   CLEAR     54  43  66 W6        30.14R
MASON CITY     CLEAR     52  44  74 W9        30.09S
FOREST CITY *    N/A     50  43  76 W7        30.08F
WEBSTER CITY * CLEAR     54  46  76 NW10G17   30.11S
IOWA FALLS *     N/A     54  48  82 W7        30.11F
$$

IAZ007>011-017>019-026>030-037>042-050>054-066-260600-
   NORTHEAST IOWA

CITY           SKY/WX    TMP DP  RH WIND       PRES   REMARKS
CEDAR RAPIDS   CLOUDY    58  52  80 W13       30.07F
CHARLES CITY * CLEAR     54  50  87 W7        30.07S
CLINTON *      CLOUDY    60  52  74 W8        30.05S
DECORAH *      CLEAR     55  52  88 VRB7G13   30.02F
DUBUQUE        CLOUDY    58  50  75 W14       30.04S
MONTICELLO *   CLOUDY    59  52  77 W8        30.05S
OELWEIN *      CLEAR     54  52  94 W7        30.07S
WATERLOO       MOCLDY    57  49  74 W12       30.07S
$$

IAZ064-065-067-068-078-260600-
   EAST CENTRAL IOWA

CITY           SKY/WX    TMP DP  RH WIND       PRES   REMARKS
DAVENPORT      CLOUDY    60  51  72 W10       30.07S
IOWA CITY      CLOUDY    60  51  72 W8        30.10S
MT. PLEASANT * CLOUDY    64  50  62 NW8       30.10F
MUSCATINE *    CLOUDY    63  52  67 W8G14     30.09S
QUAD CITIES    CLOUDY    63  50  62 W14G20    30.06S
$$

IAZ062-063-075>077-085>089-095>099-260600-
   SOUTHEAST IOWA

CITY           SKY/WX    TMP DP  RH WIND       PRES   REMARKS
BURLINGTON     CLOUDY    62  51  67 NW8       30.10S
FAIRFIELD *    CLOUDY    59  50  72 W7        30.10F
FORT MADISON * CLOUDY    63  52  67 NW9       30.11F
KEOKUK *       CLOUDY    63  50  63 NW8       30.11S
OSKALOOSA *      N/A     56  51  82 W6        30.12F
OTTUMWA        CLOUDY    58  50  75 W6        30.12F
WASHINGTON *     N/A    N/A N/A N/A MISG        N/A
$$

ABBREVIATIONS USED IN REMARKS
   TC - TEMPERATURES IN CELSIUS
  WCI - WIND CHILL INDEX
   HX - HEAT INDEX
  VSB - VISIBILITY
$$




USA.gov is the U.S. government's official web portal to all federal, state and local government web resources and services.